JBU887 KJFK-TNCM

Flight info

Callsign JBU887
Flight time 3h 36m
Altitude 35000
Route SHIPP Y492 SQUAD/M078F350 DCT DARUX L456 HANCY/N0461F350 L456 THANK DCT SLUGO
Aircraft A320/M-SDE3FGHIRWY/LB1

Departure

Time 2026-05-04 20:41
Airport John F. Kennedy International Airport (KJFK)

Arrival

Time 2026-05-05 00:17
Airport Princess Juliana International Airport (TNCM)
Time Latitude Longitude Altitude Speed Heading
2026-05-04 20:19 40.64534 -73.77339 16 ft 0 kts 358°
2026-05-04 20:33 40.64533 -73.77339 16 ft 1 kts 358°
2026-05-04 20:34 40.64519 -73.77338 17 ft 3 kts 357°
2026-05-04 20:34 40.64502 -73.77337 18 ft 3 kts
2026-05-04 20:34 40.64484 -73.77343 16 ft 3 kts 45°
2026-05-04 20:34 40.64474 -73.77364 17 ft 3 kts 80°
2026-05-04 20:35 40.64473 -73.77384 16 ft 1 kts 89°
2026-05-04 20:35 40.64473 -73.77390 16 ft 0 kts 89°
2026-05-04 20:37 40.64473 -73.77371 16 ft 5 kts 89°
2026-05-04 20:37 40.64473 -73.77303 16 ft 10 kts 90°
2026-05-04 20:37 40.64460 -73.77188 16 ft 14 kts 108°
2026-05-04 20:38 40.64431 -73.77058 16 ft 15 kts 95°
2026-05-04 20:38 40.64508 -73.76981 16 ft 16 kts 17°
2026-05-04 20:38 40.64609 -73.76910 17 ft 16 kts 31°
2026-05-04 20:38 40.64711 -73.76830 18 ft 21 kts 31°
2026-05-04 20:39 40.64838 -73.76731 17 ft 22 kts 32°
2026-05-04 20:39 40.64975 -73.76622 16 ft 23 kts 31°
2026-05-04 20:39 40.65090 -73.76526 16 ft 17 kts 51°
2026-05-04 20:39 40.65058 -73.76387 15 ft 15 kts 121°
2026-05-04 20:40 40.64990 -73.76381 15 ft 5 kts 211°
2026-05-04 20:40 40.64971 -73.76395 15 ft 14 kts 211°
2026-05-04 20:40 40.64688 -73.76617 18 ft 77 kts 211°
2026-05-04 20:40 40.64077 -73.77095 20 ft 125 kts 210°
2026-05-04 20:41 40.63190 -73.77785 39 ft 164 kts 212°
2026-05-04 20:41 40.62209 -73.78561 621 ft 164 kts 208°
2026-05-04 20:41 40.61233 -73.79334 1292 ft 166 kts 211°
2026-05-04 20:41 40.60063 -73.79791 1482 ft 191 kts 185°
2026-05-04 20:42 40.58694 -73.79313 1821 ft 224 kts 148°
2026-05-04 20:42 40.57616 -73.77705 2285 ft 243 kts 127°
2026-05-04 20:42 40.56688 -73.75788 2795 ft 258 kts 124°
2026-05-04 20:42 40.55724 -73.73707 3313 ft 271 kts 124°
2026-05-04 20:43 40.54726 -73.71530 4017 ft 277 kts 124°
2026-05-04 20:43 40.53722 -73.69346 4776 ft 281 kts 124°
2026-05-04 20:43 40.52699 -73.67135 5535 ft 285 kts 124°
2026-05-04 20:43 40.51657 -73.64897 6264 ft 289 kts 124°
2026-05-04 20:44 40.50607 -73.62650 6947 ft 294 kts 124°
2026-05-04 20:44 40.49517 -73.60321 7639 ft 298 kts 124°
2026-05-04 20:44 40.48421 -73.57991 8338 ft 302 kts 124°
2026-05-04 20:44 40.47308 -73.55636 9040 ft 305 kts 124°
2026-05-04 20:45 40.46181 -73.53260 9732 ft 308 kts 124°
2026-05-04 20:45 40.45035 -73.50846 10223 ft 319 kts 124°
2026-05-04 20:45 40.43821 -73.48295 10354 ft 340 kts 124°
2026-05-04 20:45 40.42529 -73.45582 10510 ft 359 kts 124°
2026-05-04 20:46 40.41190 -73.42765 10952 ft 367 kts 124°
2026-05-04 20:46 40.39833 -73.39902 11515 ft 371 kts 123°
2026-05-04 20:46 40.38475 -73.37029 12080 ft 375 kts 123°
2026-05-04 20:46 40.37065 -73.34045 12663 ft 379 kts 123°
2026-05-04 20:47 40.35666 -73.31098 13249 ft 382 kts 124°
2026-05-04 20:47 40.34250 -73.28130 13813 ft 386 kts 124°
2026-05-04 20:47 40.32819 -73.25134 14320 ft 390 kts 124°
2026-05-04 20:47 40.31373 -73.22109 14825 ft 393 kts 124°
2026-05-04 20:48 40.29920 -73.19067 15319 ft 396 kts 123°
2026-05-04 20:48 40.28454 -73.15995 15819 ft 399 kts 123°
2026-05-04 20:48 40.26975 -73.12900 16311 ft 402 kts 123°
2026-05-04 20:48 40.25487 -73.09786 16806 ft 405 kts 123°
2026-05-04 20:49 40.23979 -73.06655 17312 ft 408 kts 124°
2026-05-04 20:49 40.22431 -73.03523 17817 ft 411 kts 124°
2026-05-04 20:49 40.20851 -73.00381 18319 ft 415 kts 125°
2026-05-04 20:49 40.19251 -72.97228 18772 ft 418 kts 125°
2026-05-04 20:50 40.17636 -72.94049 19227 ft 421 kts 124°
2026-05-04 20:50 40.16011 -72.90842 19696 ft 425 kts 124°
2026-05-04 20:50 40.14380 -72.87607 20163 ft 428 kts 124°
2026-05-04 20:50 40.12738 -72.84345 20617 ft 431 kts 124°
2026-05-04 20:51 40.11086 -72.81057 21063 ft 434 kts 124°
2026-05-04 20:51 40.09443 -72.77731 21485 ft 437 kts 122°
2026-05-04 20:51 40.07854 -72.74329 21895 ft 441 kts 121°
2026-05-04 20:51 40.06299 -72.70866 22299 ft 444 kts 120°
2026-05-04 20:52 40.04736 -72.67313 22722 ft 446 kts 120°
2026-05-04 20:52 40.03189 -72.63794 23123 ft 449 kts 120°
2026-05-04 20:52 40.01618 -72.60261 23512 ft 452 kts 120°
2026-05-04 20:52 40.00021 -72.56717 23846 ft 454 kts 121°
2026-05-04 20:53 39.98404 -72.53165 24184 ft 456 kts 121°
2026-05-04 20:53 39.96777 -72.49601 24510 ft 458 kts 121°
2026-05-04 20:53 39.95160 -72.46013 24832 ft 460 kts 120°
2026-05-04 20:53 39.93559 -72.42394 25151 ft 462 kts 120°
2026-05-04 20:54 39.91968 -72.38750 25471 ft 464 kts 119°
2026-05-04 20:54 39.90374 -72.35088 25775 ft 466 kts 119°
2026-05-04 20:54 39.88769 -72.31410 26073 ft 468 kts 119°
2026-05-04 20:54 39.87155 -72.27725 26373 ft 470 kts 119°
2026-05-04 20:55 39.85535 -72.24039 26683 ft 472 kts 119°
2026-05-04 20:55 39.83892 -72.20321 26979 ft 474 kts 119°
2026-05-04 20:55 39.82239 -72.16600 27272 ft 476 kts 119°
2026-05-04 20:55 39.80580 -72.12875 27561 ft 478 kts 119°
2026-05-04 20:56 39.78912 -72.09131 27845 ft 480 kts 119°
2026-05-04 20:56 39.77239 -72.05374 28241 ft 479 kts 119°
2026-05-04 20:56 39.75573 -72.01634 28657 ft 478 kts 119°
2026-05-04 20:56 39.73905 -71.97898 29059 ft 477 kts 119°
2026-05-04 20:57 39.72213 -71.94180 29446 ft 477 kts 120°
2026-05-04 20:57 39.70504 -71.90497 29851 ft 477 kts 120°
2026-05-04 20:57 39.68778 -71.86818 30225 ft 476 kts 121°
2026-05-04 20:57 39.67053 -71.83155 30582 ft 475 kts 121°
2026-05-04 20:58 39.65331 -71.79497 30944 ft 474 kts 121°
2026-05-04 20:58 39.63617 -71.75846 31308 ft 473 kts 121°
2026-05-04 20:58 39.61909 -71.72205 31663 ft 472 kts 121°
2026-05-04 20:58 39.60207 -71.68563 32028 ft 471 kts 121°
2026-05-04 20:59 39.58513 -71.64935 32390 ft 470 kts 122°
2026-05-04 20:59 39.56820 -71.61307 32742 ft 470 kts 122°
2026-05-04 20:59 39.55130 -71.57692 33094 ft 469 kts 122°
2026-05-04 20:59 39.53434 -71.54080 33440 ft 468 kts 122°
2026-05-04 21:00 39.51739 -71.50487 33778 ft 467 kts 123°
2026-05-04 21:00 39.50043 -71.46899 34094 ft 467 kts 123°
2026-05-04 21:00 39.48326 -71.43268 34349 ft 467 kts 123°
2026-05-04 21:00 39.46630 -71.39686 34551 ft 467 kts 123°
2026-05-04 21:01 39.44823 -71.36205 34765 ft 465 kts 132°
2026-05-04 21:01 39.42624 -71.33178 34952 ft 460 kts 142°
2026-05-04 21:01 39.37339 -71.28622 35054 ft 457 kts 160°
2026-05-04 21:02 39.31435 -71.25486 35057 ft 461 kts 163°
2026-05-04 21:02 39.25488 -71.22384 35061 ft 461 kts 163°
2026-05-04 21:03 39.19541 -71.19293 35070 ft 460 kts 163°
2026-05-04 21:03 39.13611 -71.16212 35061 ft 459 kts 163°
2026-05-04 21:04 39.07682 -71.13140 35075 ft 459 kts 163°
2026-05-04 21:04 39.01756 -71.10085 35082 ft 459 kts 163°
2026-05-04 21:05 38.95835 -71.07033 35088 ft 458 kts 164°
2026-05-04 21:05 38.90883 -71.04478 35092 ft 458 kts 164°
2026-05-04 21:06 38.84978 -71.01437 35099 ft 457 kts 164°
2026-05-04 21:06 38.79079 -70.98409 35098 ft 456 kts 164°
2026-05-04 21:07 38.73186 -70.95395 35100 ft 456 kts 165°
2026-05-04 21:07 38.67302 -70.92387 35100 ft 455 kts 165°
2026-05-04 21:08 38.61428 -70.89388 35107 ft 454 kts 165°
2026-05-04 21:08 38.55559 -70.86394 35108 ft 454 kts 165°
2026-05-04 21:09 38.49696 -70.83412 35113 ft 453 kts 165°
2026-05-04 21:09 38.43836 -70.80434 35111 ft 453 kts 166°
2026-05-04 21:10 38.37977 -70.77471 35111 ft 453 kts 166°
2026-05-04 21:10 38.32117 -70.74504 35113 ft 453 kts 166°
2026-05-04 21:11 38.26220 -70.71529 35106 ft 453 kts 166°
2026-05-04 21:11 38.20358 -70.68578 35104 ft 453 kts 166°
2026-05-04 21:12 38.14494 -70.65617 35106 ft 454 kts 166°
2026-05-04 21:12 38.08625 -70.62661 35106 ft 454 kts 167°
2026-05-04 21:13 38.02749 -70.59718 35102 ft 454 kts 167°
2026-05-04 21:13 37.96893 -70.56645 35107 ft 458 kts 163°
2026-05-04 21:14 37.91148 -70.53034 35104 ft 462 kts 161°
2026-05-04 21:14 37.85449 -70.49250 35105 ft 463 kts 161°
2026-05-04 21:15 37.79717 -70.45557 35107 ft 462 kts 162°
2026-05-04 21:15 37.73875 -70.41919 35116 ft 462 kts 162°
2026-05-04 21:16 37.68095 -70.38352 35112 ft 462 kts 162°
2026-05-04 21:16 37.62317 -70.34766 35110 ft 463 kts 162°
2026-05-04 21:17 37.56535 -70.31154 35112 ft 464 kts 162°
2026-05-04 21:17 37.50746 -70.27548 35112 ft 464 kts 162°
2026-05-04 21:18 37.44946 -70.23949 35117 ft 465 kts 163°
2026-05-04 21:18 37.39139 -70.20356 35124 ft 465 kts 163°
2026-05-04 21:19 37.33333 -70.16762 35131 ft 465 kts 162°
2026-05-04 21:19 37.27526 -70.13172 35137 ft 465 kts 163°
2026-05-04 21:20 37.21715 -70.09605 35148 ft 465 kts 163°
2026-05-04 21:20 37.15916 -70.06042 35156 ft 464 kts 163°
2026-05-04 21:21 37.10121 -70.02479 35161 ft 463 kts 163°
2026-05-04 21:21 37.04301 -69.98905 35163 ft 462 kts 163°
2026-05-04 21:22 36.98533 -69.95374 35171 ft 461 kts 163°
2026-05-04 21:22 36.92773 -69.91856 35172 ft 460 kts 163°
2026-05-04 21:23 36.87035 -69.88353 35173 ft 459 kts 163°
2026-05-04 21:23 36.81310 -69.84865 35174 ft 458 kts 164°
2026-05-04 21:24 36.75593 -69.81386 35182 ft 457 kts 164°
2026-05-04 21:24 36.69863 -69.77917 35183 ft 455 kts 165°
2026-05-04 21:25 36.64170 -69.74478 35179 ft 454 kts 165°
2026-05-04 21:25 36.58490 -69.71041 35180 ft 453 kts 165°
2026-05-04 21:26 36.52823 -69.67621 35183 ft 452 kts 165°
2026-05-04 21:26 36.47164 -69.64214 35188 ft 452 kts 165°
2026-05-04 21:27 36.41516 -69.60807 35197 ft 451 kts 165°
2026-05-04 21:27 36.35873 -69.57411 35189 ft 450 kts 165°
2026-05-04 21:28 36.30234 -69.54031 35188 ft 450 kts 166°
2026-05-04 21:28 36.24597 -69.50658 35189 ft 450 kts 166°
2026-05-04 21:29 36.18966 -69.47294 35191 ft 449 kts 166°
2026-05-04 21:29 36.13235 -69.44729 35191 ft 427 kts 179°
2026-05-04 21:30 36.07400 -69.43177 35183 ft 426 kts 179°
2026-05-04 21:30 36.01616 -69.41627 35188 ft 425 kts 179°
2026-05-04 21:31 35.92951 -69.39300 35202 ft 424 kts 179°
2026-05-04 21:32 35.87183 -69.37747 35203 ft 424 kts 179°
2026-05-04 21:32 35.81428 -69.36194 35205 ft 423 kts 179°
2026-05-04 21:33 35.75675 -69.34646 35204 ft 422 kts 179°
2026-05-04 21:33 35.69937 -69.33112 35202 ft 422 kts 179°
2026-05-04 21:34 35.64205 -69.31575 35202 ft 421 kts 179°
2026-05-04 21:34 35.58485 -69.30055 35203 ft 420 kts 179°
2026-05-04 21:35 35.52775 -69.28538 35208 ft 419 kts 179°
2026-05-04 21:35 35.47079 -69.27023 35208 ft 419 kts 179°
2026-05-04 21:36 35.42313 -69.25756 35207 ft 418 kts 179°
2026-05-04 21:36 35.36628 -69.24245 35213 ft 418 kts 179°
2026-05-04 21:37 35.30953 -69.22738 35205 ft 417 kts 179°
2026-05-04 21:37 35.25278 -69.21239 35202 ft 417 kts 179°
2026-05-04 21:38 35.19612 -69.19743 35202 ft 416 kts 179°
2026-05-04 21:38 35.13954 -69.18242 35199 ft 416 kts 179°
2026-05-04 21:39 35.08260 -69.16743 35199 ft 415 kts 179°
2026-05-04 21:39 35.02612 -69.15269 35203 ft 415 kts 179°
2026-05-04 21:40 34.96967 -69.13786 35208 ft 415 kts 179°
2026-05-04 21:40 34.91329 -69.12310 35205 ft 414 kts 179°
2026-05-04 21:41 34.85700 -69.10831 35205 ft 413 kts 179°
2026-05-04 21:41 34.80079 -69.09352 35208 ft 412 kts 179°
2026-05-04 21:42 34.74439 -69.07883 35207 ft 411 kts 179°
2026-05-04 21:42 34.68854 -69.06423 35210 ft 410 kts 179°
2026-05-04 21:43 34.63282 -69.04968 35208 ft 409 kts 179°
2026-05-04 21:43 34.57723 -69.03525 35210 ft 408 kts 179°
2026-05-04 21:44 34.52184 -69.02095 35205 ft 407 kts 179°
2026-05-04 21:44 34.46654 -69.00661 35217 ft 406 kts 179°
2026-05-04 21:45 34.41140 -68.99214 35214 ft 405 kts 179°
2026-05-04 21:45 34.35638 -68.97790 35209 ft 404 kts 179°
2026-05-04 21:46 34.30148 -68.96384 35208 ft 403 kts 179°
2026-05-04 21:46 34.24672 -68.94982 35203 ft 402 kts 179°
2026-05-04 21:47 34.19166 -68.93555 35202 ft 401 kts 179°
2026-05-04 21:47 34.13711 -68.92144 35200 ft 401 kts 178°
2026-05-04 21:48 34.08259 -68.90734 35199 ft 400 kts 179°
2026-05-04 21:48 34.02820 -68.89340 35202 ft 399 kts 179°
2026-05-04 21:49 33.97388 -68.87954 35203 ft 399 kts 179°
2026-05-04 21:49 33.91962 -68.86568 35207 ft 398 kts 179°
2026-05-04 21:50 33.86555 -68.85190 35209 ft 397 kts 179°
2026-05-04 21:50 33.81161 -68.83809 35208 ft 396 kts 179°
2026-05-04 21:51 33.75747 -68.82426 35205 ft 395 kts 179°
2026-05-04 21:51 33.70382 -68.81054 35207 ft 393 kts 179°
2026-05-04 21:52 33.65036 -68.79694 35209 ft 392 kts 179°
2026-05-04 21:52 33.59703 -68.78351 35208 ft 391 kts 179°
2026-05-04 21:53 33.54390 -68.77009 35205 ft 390 kts 179°
2026-05-04 21:53 33.49089 -68.75654 35211 ft 389 kts 179°
2026-05-04 21:54 33.43760 -68.74303 35204 ft 388 kts 179°
2026-05-04 21:54 33.38476 -68.72959 35205 ft 388 kts 179°
2026-05-04 21:55 33.33194 -68.71630 35198 ft 388 kts 179°
2026-05-04 21:55 33.27879 -68.70295 35197 ft 388 kts 179°
2026-05-04 21:56 33.22601 -68.68968 35192 ft 388 kts 179°
2026-05-04 21:56 33.17321 -68.67645 35189 ft 388 kts 179°
2026-05-04 21:57 33.12039 -68.66315 35186 ft 388 kts 179°
2026-05-04 21:57 33.06715 -68.64976 35180 ft 389 kts 179°
2026-05-04 21:58 33.01420 -68.63647 35179 ft 389 kts 178°
2026-05-04 21:58 32.96154 -68.62332 35178 ft 389 kts 178°
2026-05-04 21:59 32.90817 -68.61001 35171 ft 390 kts 178°
2026-05-04 21:59 32.85507 -68.59675 35166 ft 390 kts 178°
2026-05-04 22:00 32.80184 -68.58345 35166 ft 391 kts 178°
2026-05-04 22:00 32.74869 -68.57024 35166 ft 392 kts 178°
2026-05-04 22:01 32.69512 -68.55690 35167 ft 393 kts 178°
2026-05-04 22:01 32.64160 -68.54354 35159 ft 393 kts 178°
2026-05-04 22:02 32.59701 -68.53240 35160 ft 394 kts 178°
2026-05-04 22:02 32.54328 -68.51912 35153 ft 394 kts 179°
2026-05-04 22:03 32.48951 -68.50597 35177 ft 395 kts 179°
2026-05-04 22:03 32.43568 -68.49260 35180 ft 396 kts 179°
2026-05-04 22:04 32.38165 -68.47917 35174 ft 397 kts 179°
2026-05-04 22:04 32.32752 -68.46586 35171 ft 398 kts 179°
2026-05-04 22:05 32.27326 -68.45253 35164 ft 399 kts 179°
2026-05-04 22:05 32.21894 -68.43911 35159 ft 400 kts 179°
2026-05-04 22:06 32.16407 -68.42557 35153 ft 400 kts 179°
2026-05-04 22:06 32.10945 -68.41220 35145 ft 401 kts 179°
2026-05-04 22:07 32.05478 -68.39886 35149 ft 402 kts 179°
2026-05-04 22:07 32.00001 -68.38543 35144 ft 402 kts 179°
2026-05-04 22:08 31.94516 -68.37199 35148 ft 403 kts 179°
2026-05-04 22:08 31.89028 -68.35855 35155 ft 403 kts 179°
2026-05-04 22:09 31.83536 -68.34517 35156 ft 403 kts 179°
2026-05-04 22:09 31.78042 -68.33174 35156 ft 403 kts 179°
2026-05-04 22:10 31.72542 -68.31828 35156 ft 404 kts 179°
2026-05-04 22:10 31.67040 -68.30493 35157 ft 404 kts 179°
2026-05-04 22:11 31.61534 -68.29163 35152 ft 404 kts 179°
2026-05-04 22:11 31.55985 -68.27823 35149 ft 404 kts 179°
2026-05-04 22:12 31.50473 -68.26484 35145 ft 405 kts 179°
2026-05-04 22:12 31.44952 -68.25143 35144 ft 405 kts 179°
2026-05-04 22:13 31.39391 -68.23801 35142 ft 406 kts 179°
2026-05-04 22:13 31.33862 -68.22476 35138 ft 406 kts 179°
2026-05-04 22:14 31.28320 -68.21146 35135 ft 407 kts 178°
2026-05-04 22:14 31.22774 -68.19805 35139 ft 407 kts 178°
2026-05-04 22:15 31.17219 -68.18463 35125 ft 408 kts 178°
2026-05-04 22:15 31.11657 -68.17129 35124 ft 409 kts 178°
2026-05-04 22:16 31.06082 -68.15789 35128 ft 409 kts 178°
2026-05-04 22:16 31.00496 -68.14453 35123 ft 410 kts 177°
2026-05-04 22:17 30.94861 -68.13101 35120 ft 411 kts 177°
2026-05-04 22:17 30.89253 -68.11755 35117 ft 412 kts 177°
2026-05-04 22:18 30.83633 -68.10419 35115 ft 412 kts 177°
2026-05-04 22:18 30.78010 -68.09087 35114 ft 413 kts 177°
2026-05-04 22:19 30.72372 -68.07742 35111 ft 414 kts 177°
2026-05-04 22:19 30.66726 -68.06402 35112 ft 414 kts 177°
2026-05-04 22:20 30.61075 -68.05064 35116 ft 415 kts 177°
2026-05-04 22:20 30.55412 -68.03713 35113 ft 416 kts 177°
2026-05-04 22:21 30.49745 -68.02367 35111 ft 416 kts 177°
2026-05-04 22:21 30.44030 -68.01004 35111 ft 417 kts 177°
2026-05-04 22:22 30.38350 -67.99664 35111 ft 417 kts 177°
2026-05-04 22:22 30.32654 -67.98332 35109 ft 417 kts 177°
2026-05-04 22:23 30.26962 -67.96988 35108 ft 418 kts 177°
2026-05-04 22:23 30.21260 -67.95639 35109 ft 418 kts 177°
2026-05-04 22:24 30.15551 -67.94296 35116 ft 419 kts 177°
2026-05-04 22:24 30.09837 -67.92950 35104 ft 419 kts 177°
2026-05-04 22:25 30.04111 -67.91604 35102 ft 420 kts 177°
2026-05-04 22:25 29.98385 -67.90263 35097 ft 420 kts 178°
2026-05-04 22:26 29.92613 -67.88912 35097 ft 421 kts 177°
2026-05-04 22:26 29.86871 -67.87565 35093 ft 421 kts 177°
2026-05-04 22:27 29.81120 -67.86221 35090 ft 422 kts 177°
2026-05-04 22:27 29.75330 -67.84871 35088 ft 422 kts 177°
2026-05-04 22:28 29.69565 -67.83523 35085 ft 423 kts 177°
2026-05-04 22:28 29.63797 -67.82186 35084 ft 423 kts 178°
2026-05-04 22:29 29.58025 -67.80848 35082 ft 424 kts 177°
2026-05-04 22:29 29.52245 -67.79502 35084 ft 424 kts 177°
2026-05-04 22:30 29.47395 -67.78381 35086 ft 425 kts 177°
2026-05-04 22:30 29.41634 -67.77051 35083 ft 425 kts 177°
2026-05-04 22:31 29.35780 -67.75702 35081 ft 426 kts 177°
2026-05-04 22:31 29.29966 -67.74354 35081 ft 426 kts 177°
2026-05-04 22:32 29.24147 -67.73005 35079 ft 427 kts 177°
2026-05-04 22:32 29.18318 -67.71654 35076 ft 428 kts 177°
2026-05-04 22:33 29.12479 -67.70307 35080 ft 428 kts 177°
2026-05-04 22:33 29.06626 -67.68959 35077 ft 429 kts 177°
2026-05-04 22:34 29.00776 -67.67613 35137 ft 429 kts 176°
2026-05-04 22:34 28.94939 -67.66268 35123 ft 427 kts 176°
2026-05-04 22:35 28.89135 -67.64938 35117 ft 425 kts 176°
2026-05-04 22:35 28.83294 -67.63605 35112 ft 425 kts 176°
2026-05-04 22:36 28.77499 -67.62281 35102 ft 425 kts 176°
2026-05-04 22:36 28.71703 -67.60951 35095 ft 425 kts 176°
2026-05-04 22:37 28.65896 -67.59626 35087 ft 426 kts 176°
2026-05-04 22:37 28.60084 -67.58301 35084 ft 426 kts 176°
2026-05-04 22:38 28.54261 -67.56984 35082 ft 427 kts 176°
2026-05-04 22:38 28.48429 -67.55655 35077 ft 428 kts 175°
2026-05-04 22:39 28.42587 -67.54320 35075 ft 428 kts 175°
2026-05-04 22:39 28.36743 -67.52993 35070 ft 429 kts 175°
2026-05-04 22:40 28.30889 -67.51673 35066 ft 429 kts 175°
2026-05-04 22:40 28.25023 -67.50341 35061 ft 430 kts 175°
2026-05-04 22:41 28.19149 -67.49009 35060 ft 431 kts 175°
2026-05-04 22:41 28.13263 -67.47683 35057 ft 432 kts 175°
2026-05-04 22:42 28.07323 -67.46345 35056 ft 433 kts 175°
2026-05-04 22:42 28.01413 -67.45011 35054 ft 434 kts 174°
2026-05-04 22:43 27.95494 -67.43671 35056 ft 434 kts 174°
2026-05-04 22:43 27.89559 -67.42329 35054 ft 435 kts 174°
2026-05-04 22:44 27.83616 -67.40993 35058 ft 436 kts 174°
2026-05-04 22:44 27.77655 -67.39660 35060 ft 437 kts 174°
2026-05-04 22:45 27.71691 -67.38327 35055 ft 438 kts 174°
2026-05-04 22:45 27.62722 -67.36311 35057 ft 439 kts 174°
2026-05-04 22:46 27.56729 -67.34969 35057 ft 439 kts 174°
2026-05-04 22:46 27.50726 -67.33628 35054 ft 440 kts 174°
2026-05-04 22:47 27.44709 -67.32288 35056 ft 441 kts 174°
2026-05-04 22:47 27.38683 -67.30948 35060 ft 442 kts 175°
2026-05-04 22:48 27.32651 -67.29601 35057 ft 442 kts 175°
2026-05-04 22:48 27.26612 -67.28258 35061 ft 443 kts 175°
2026-05-04 22:49 27.20557 -67.26921 35072 ft 444 kts 175°
2026-05-04 22:49 27.14497 -67.25567 35065 ft 444 kts 175°
2026-05-04 22:50 27.08432 -67.24225 35070 ft 444 kts 175°
2026-05-04 22:50 27.02326 -67.22872 35069 ft 445 kts 175°
2026-05-04 22:51 26.96250 -67.21527 35069 ft 445 kts 175°
2026-05-04 22:51 26.90172 -67.20186 35072 ft 445 kts 176°
2026-05-04 22:52 26.84095 -67.18850 35078 ft 445 kts 176°
2026-05-04 22:52 26.78021 -67.17506 35086 ft 445 kts 176°
2026-05-04 22:53 26.71943 -67.16171 35083 ft 445 kts 176°
2026-05-04 22:53 26.65868 -67.14836 35082 ft 445 kts 176°
2026-05-04 22:54 26.59794 -67.13499 35086 ft 445 kts 176°
2026-05-04 22:54 26.53714 -67.12164 35084 ft 445 kts 176°
2026-05-04 22:55 26.47635 -67.10828 35083 ft 445 kts 177°
2026-05-04 22:55 26.41558 -67.09496 35077 ft 445 kts 177°
2026-05-04 22:56 26.35478 -67.08168 35080 ft 445 kts 177°
2026-05-04 22:56 26.29359 -67.06835 35077 ft 445 kts 177°
2026-05-04 22:57 26.23278 -67.05507 35079 ft 445 kts 177°
2026-05-04 22:57 26.17203 -67.04187 35085 ft 445 kts 177°
2026-05-04 22:58 26.11087 -67.02851 35086 ft 445 kts 177°
2026-05-04 22:58 26.04969 -67.01514 35083 ft 445 kts 177°
2026-05-04 22:59 25.99920 -67.00416 35084 ft 445 kts 177°
2026-05-04 22:59 25.93842 -66.99102 35085 ft 445 kts 177°
2026-05-04 23:00 25.87767 -66.97790 35082 ft 445 kts 177°
2026-05-04 23:00 25.81694 -66.96473 35087 ft 445 kts 177°
2026-05-04 23:01 25.75622 -66.95154 35087 ft 445 kts 177°
2026-05-04 23:01 25.69545 -66.93837 35083 ft 445 kts 177°
2026-05-04 23:02 25.63424 -66.92514 35089 ft 445 kts 177°
2026-05-04 23:02 25.57346 -66.91208 35079 ft 445 kts 177°
2026-05-04 23:03 25.51262 -66.89897 35083 ft 445 kts 177°
2026-05-04 23:03 25.45178 -66.88583 35084 ft 446 kts 176°
2026-05-04 23:04 25.39157 -66.87294 35081 ft 445 kts 176°
2026-05-04 23:04 25.33077 -66.85992 35076 ft 446 kts 176°
2026-05-04 23:05 25.26982 -66.84679 35073 ft 447 kts 176°
2026-05-04 23:05 25.20874 -66.83365 35076 ft 447 kts 176°
2026-05-04 23:06 25.14759 -66.82055 35076 ft 448 kts 176°
2026-05-04 23:06 25.08599 -66.80737 35077 ft 448 kts 176°
2026-05-04 23:07 25.02477 -66.79418 35078 ft 448 kts 176°
2026-05-04 23:07 24.96355 -66.78113 35085 ft 448 kts 176°
2026-05-04 23:08 24.90226 -66.76811 35087 ft 448 kts 176°
2026-05-04 23:08 24.84105 -66.75506 35089 ft 448 kts 176°
2026-05-04 23:09 24.77981 -66.74187 35090 ft 448 kts 176°
2026-05-04 23:09 24.71857 -66.72892 35094 ft 448 kts 176°
2026-05-04 23:10 24.65737 -66.71601 35095 ft 448 kts 175°
2026-05-04 23:10 24.59607 -66.70295 35094 ft 448 kts 175°
2026-05-04 23:11 24.53476 -66.68994 35094 ft 448 kts 175°
2026-05-04 23:11 24.47308 -66.67686 35090 ft 449 kts 175°
2026-05-04 23:12 24.41178 -66.66388 35089 ft 449 kts 175°
2026-05-04 23:12 24.35048 -66.65094 35087 ft 449 kts 175°
2026-05-04 23:13 24.28911 -66.63799 35092 ft 449 kts 175°
2026-05-04 23:13 24.22778 -66.62502 35092 ft 449 kts 175°
2026-05-04 23:14 24.16638 -66.61199 35091 ft 449 kts 175°
2026-05-04 23:14 24.10454 -66.59894 35092 ft 450 kts 175°
2026-05-04 23:15 24.04310 -66.58604 35093 ft 450 kts 175°
2026-05-04 23:15 23.98120 -66.57306 35106 ft 450 kts 175°
2026-05-04 23:16 23.91972 -66.56017 35091 ft 450 kts 175°
2026-05-04 23:16 23.85814 -66.54729 35096 ft 450 kts 175°
2026-05-04 23:17 23.79656 -66.53431 35087 ft 451 kts 175°
2026-05-04 23:17 23.73488 -66.52135 35103 ft 451 kts 175°
2026-05-04 23:18 23.67320 -66.50853 35091 ft 451 kts 175°
2026-05-04 23:18 23.61175 -66.49577 35095 ft 451 kts 175°
2026-05-04 23:19 23.54966 -66.48276 35092 ft 452 kts 175°
2026-05-04 23:19 23.48786 -66.46979 35101 ft 452 kts 175°
2026-05-04 23:20 23.42591 -66.45685 35090 ft 452 kts 175°
2026-05-04 23:20 23.36406 -66.44401 35096 ft 453 kts 174°
2026-05-04 23:21 23.30214 -66.43112 35093 ft 453 kts 174°
2026-05-04 23:21 23.24017 -66.41830 35098 ft 453 kts 174°
2026-05-04 23:22 23.17818 -66.40543 35097 ft 454 kts 174°
2026-05-04 23:22 23.11620 -66.39254 35092 ft 454 kts 174°
2026-05-04 23:23 23.05410 -66.37967 35095 ft 454 kts 174°
2026-05-04 23:23 22.99202 -66.36684 35100 ft 454 kts 174°
2026-05-04 23:24 22.92986 -66.35401 35100 ft 455 kts 174°
2026-05-04 23:24 22.86768 -66.34116 35099 ft 455 kts 174°
2026-05-04 23:25 22.80547 -66.32832 35104 ft 455 kts 174°
2026-05-04 23:25 22.74321 -66.31540 35098 ft 456 kts 174°
2026-05-04 23:26 22.68056 -66.30251 35100 ft 456 kts 174°
2026-05-04 23:26 22.62875 -66.29192 35097 ft 456 kts 174°
2026-05-04 23:27 22.56645 -66.27911 35097 ft 456 kts 174°
2026-05-04 23:27 22.50407 -66.26623 35100 ft 456 kts 174°
2026-05-04 23:28 22.44170 -66.25338 35100 ft 456 kts 174°
2026-05-04 23:28 22.37931 -66.24068 35103 ft 456 kts 174°
2026-05-04 23:29 22.31690 -66.22790 35104 ft 457 kts 174°
2026-05-04 23:29 22.25451 -66.21502 35105 ft 457 kts 174°
2026-05-04 23:30 22.19201 -66.20221 35103 ft 457 kts 174°
2026-05-04 23:30 22.12909 -66.18938 35105 ft 457 kts 173°
2026-05-04 23:31 22.06666 -66.17663 35108 ft 457 kts 173°
2026-05-04 23:31 22.00422 -66.16397 35104 ft 457 kts 173°
2026-05-04 23:32 21.94162 -66.15124 35100 ft 457 kts 173°
2026-05-04 23:32 21.87911 -66.13842 35101 ft 457 kts 173°
2026-05-04 23:33 21.81661 -66.12563 35103 ft 457 kts 173°
2026-05-04 23:33 21.75406 -66.11296 35102 ft 457 kts 173°
2026-05-04 23:34 21.69149 -66.10030 35105 ft 457 kts 173°
2026-05-04 23:34 21.62854 -66.08752 35099 ft 458 kts 173°
2026-05-04 23:35 21.56595 -66.07481 35100 ft 458 kts 173°
2026-05-04 23:35 21.50336 -66.06211 35099 ft 458 kts 172°
2026-05-04 23:36 21.44333 -66.03796 35091 ft 467 kts 153°
2026-05-04 23:36 21.39008 -65.99733 35094 ft 471 kts 147°
2026-05-04 23:37 21.33743 -65.95543 35096 ft 471 kts 147°
2026-05-04 23:37 21.28477 -65.91357 35095 ft 471 kts 147°
2026-05-04 23:38 21.23200 -65.87176 35099 ft 472 kts 147°
2026-05-04 23:38 21.17925 -65.82994 35095 ft 472 kts 147°
2026-05-04 23:39 21.12649 -65.78811 35099 ft 472 kts 147°
2026-05-04 23:39 21.07374 -65.74634 35102 ft 472 kts 146°
2026-05-04 23:40 21.02097 -65.70457 35100 ft 472 kts 147°
2026-05-04 23:40 20.96807 -65.66291 35105 ft 472 kts 147°
2026-05-04 23:41 20.91527 -65.62124 35104 ft 472 kts 146°
2026-05-04 23:41 20.86247 -65.57947 35101 ft 472 kts 146°
2026-05-04 23:42 20.80931 -65.53744 35100 ft 472 kts 146°
2026-05-04 23:42 20.75674 -65.49604 35101 ft 472 kts 146°
2026-05-04 23:43 20.70346 -65.45415 35103 ft 472 kts 147°
2026-05-04 23:43 20.65054 -65.41257 35104 ft 473 kts 146°
2026-05-04 23:44 20.59764 -65.37088 35103 ft 473 kts 146°
2026-05-04 23:44 20.54469 -65.32924 35106 ft 473 kts 146°
2026-05-04 23:45 20.49165 -65.28765 35103 ft 473 kts 146°
2026-05-04 23:45 20.43857 -65.24621 35104 ft 473 kts 146°
2026-05-04 23:46 20.38552 -65.20465 35103 ft 473 kts 146°
2026-05-04 23:46 20.33246 -65.16307 35105 ft 473 kts 146°
2026-05-04 23:47 20.27939 -65.12151 35106 ft 473 kts 146°
2026-05-04 23:47 20.22595 -65.07977 35105 ft 474 kts 146°
2026-05-04 23:48 20.17279 -65.03832 35104 ft 474 kts 146°
2026-05-04 23:48 20.11964 -64.99687 35104 ft 474 kts 146°
2026-05-04 23:49 20.06610 -64.95515 35104 ft 474 kts 146°
2026-05-04 23:49 20.01285 -64.91375 35108 ft 474 kts 146°
2026-05-04 23:50 19.95963 -64.87243 35104 ft 474 kts 146°
2026-05-04 23:50 19.90639 -64.83099 35104 ft 474 kts 146°
2026-05-04 23:51 19.85316 -64.78959 35105 ft 474 kts 146°
2026-05-04 23:51 19.79949 -64.74801 35107 ft 474 kts 146°
2026-05-04 23:52 19.74619 -64.70677 35106 ft 474 kts 146°
2026-05-04 23:52 19.69287 -64.66541 35107 ft 474 kts 146°
2026-05-04 23:53 19.63955 -64.62412 35106 ft 474 kts 146°
2026-05-04 23:53 19.58623 -64.58295 35106 ft 474 kts 146°
2026-05-04 23:54 19.53284 -64.54178 35107 ft 474 kts 146°
2026-05-04 23:54 19.47952 -64.50058 34901 ft 473 kts 146°
2026-05-04 23:55 19.45260 -64.47980 34668 ft 472 kts 146°
2026-05-04 23:55 19.42607 -64.45937 34442 ft 471 kts 146°
2026-05-04 23:55 19.37319 -64.41859 33979 ft 469 kts 145°
2026-05-04 23:56 19.34669 -64.39821 33074 ft 475 kts 145°
2026-05-04 23:56 19.32894 -64.38458 32543 ft 477 kts 145°
2026-05-04 23:56 19.30225 -64.36409 32062 ft 472 kts 145°
2026-05-04 23:56 19.27572 -64.34370 31442 ft 470 kts 144°
2026-05-04 23:57 19.24893 -64.32308 30822 ft 469 kts 144°
2026-05-04 23:57 19.22256 -64.30277 30174 ft 469 kts 144°
2026-05-04 23:57 19.19620 -64.28253 29469 ft 468 kts 144°
2026-05-04 23:57 19.16993 -64.26239 28827 ft 464 kts 144°
2026-05-04 23:58 19.14389 -64.24243 28165 ft 461 kts 144°
2026-05-04 23:58 19.11821 -64.22275 27511 ft 458 kts 144°
2026-05-04 23:58 19.09249 -64.20304 26855 ft 455 kts 144°
2026-05-04 23:58 19.06663 -64.18319 26198 ft 452 kts 144°
2026-05-04 23:59 19.04131 -64.16371 25553 ft 448 kts 144°
2026-05-04 23:59 19.01619 -64.14439 24920 ft 445 kts 144°
2026-05-04 23:59 18.99131 -64.12530 24284 ft 438 kts 145°
2026-05-04 23:59 18.96702 -64.10673 23662 ft 427 kts 145°
2026-05-05 00:00 18.94311 -64.08847 22978 ft 420 kts 145°
2026-05-05 00:00 18.92712 -64.07627 22593 ft 417 kts 145°
2026-05-05 00:00 18.89613 -64.05263 21830 ft 414 kts 146°
2026-05-05 00:00 18.87283 -64.03484 21282 ft 412 kts 146°
2026-05-05 00:01 18.84929 -64.01687 20729 ft 412 kts 146°
2026-05-05 00:01 18.82612 -63.99917 20204 ft 411 kts 146°
2026-05-05 00:01 18.80307 -63.98155 19689 ft 410 kts 146°
2026-05-05 00:01 18.77987 -63.96382 19167 ft 410 kts 146°
2026-05-05 00:02 18.75683 -63.94617 18633 ft 409 kts 146°
2026-05-05 00:02 18.73378 -63.92853 18059 ft 409 kts 146°
2026-05-05 00:02 18.71080 -63.91099 17485 ft 407 kts 146°
2026-05-05 00:02 18.68791 -63.89354 16936 ft 404 kts 145°
2026-05-05 00:03 18.66517 -63.87625 16358 ft 403 kts 145°
2026-05-05 00:03 18.64252 -63.85904 15783 ft 401 kts 146°
2026-05-05 00:03 18.61992 -63.84189 15192 ft 399 kts 145°
2026-05-05 00:03 18.59715 -63.82456 14583 ft 397 kts 144°
2026-05-05 00:04 18.57528 -63.80789 13997 ft 388 kts 144°
2026-05-05 00:04 18.55383 -63.79151 13375 ft 374 kts 144°
2026-05-05 00:04 18.53280 -63.77547 12808 ft 363 kts 144°
2026-05-05 00:04 18.51242 -63.76000 12252 ft 361 kts 144°
2026-05-05 00:05 18.49209 -63.74460 11770 ft 357 kts 144°
2026-05-05 00:05 18.47233 -63.72960 11645 ft 343 kts 144°
2026-05-05 00:05 18.45336 -63.71523 11522 ft 330 kts 144°
2026-05-05 00:05 18.43503 -63.70133 11403 ft 319 kts 144°
2026-05-05 00:06 18.41734 -63.68790 11282 ft 308 kts 144°
2026-05-05 00:06 18.40010 -63.67483 11085 ft 301 kts 144°
2026-05-05 00:06 18.38381 -63.66123 10980 ft 301 kts 137°
2026-05-05 00:06 18.36858 -63.64605 10642 ft 300 kts 137°
2026-05-05 00:07 18.35346 -63.63096 10306 ft 299 kts 137°
2026-05-05 00:07 18.33838 -63.61595 9997 ft 298 kts 137°
2026-05-05 00:07 18.32331 -63.60102 9654 ft 296 kts 137°
2026-05-05 00:07 18.30840 -63.58623 9334 ft 294 kts 136°
2026-05-05 00:08 18.29363 -63.57157 9017 ft 291 kts 136°
2026-05-05 00:08 18.27897 -63.55700 8709 ft 288 kts 136°
2026-05-05 00:08 18.26448 -63.54259 8397 ft 286 kts 136°
2026-05-05 00:08 18.25009 -63.52832 8087 ft 283 kts 136°
2026-05-05 00:09 18.23581 -63.51414 7786 ft 281 kts 136°
2026-05-05 00:09 18.22165 -63.50011 7483 ft 278 kts 136°
2026-05-05 00:09 18.20811 -63.48669 7199 ft 276 kts 136°
2026-05-05 00:09 18.19418 -63.47289 6896 ft 274 kts 136°
2026-05-05 00:10 18.18035 -63.45919 6605 ft 272 kts 136°
2026-05-05 00:10 18.16661 -63.44556 6304 ft 271 kts 136°
2026-05-05 00:10 18.15293 -63.43200 6009 ft 269 kts 136°
2026-05-05 00:10 18.13919 -63.41839 5720 ft 267 kts 136°
2026-05-05 00:11 18.12572 -63.40503 5430 ft 265 kts 136°
2026-05-05 00:11 18.11236 -63.39182 5108 ft 264 kts 136°
2026-05-05 00:11 18.09901 -63.37864 4796 ft 262 kts 136°
2026-05-05 00:11 18.08577 -63.36557 4502 ft 260 kts 136°
2026-05-05 00:12 18.07288 -63.35284 4221 ft 247 kts 136°
2026-05-05 00:12 18.06071 -63.34080 3972 ft 234 kts 136°
2026-05-05 00:12 18.04919 -63.32941 3727 ft 221 kts 136°
2026-05-05 00:12 18.03831 -63.31869 3501 ft 208 kts 136°
2026-05-05 00:13 18.02806 -63.30858 3281 ft 196 kts 135°
2026-05-05 00:13 18.02027 -63.29734 3075 ft 188 kts 115°
2026-05-05 00:13 18.01683 -63.28433 2906 ft 184 kts 97°
2026-05-05 00:13 18.01770 -63.27082 2674 ft 182 kts 84°
2026-05-05 00:14 18.01968 -63.25756 2462 ft 182 kts 84°
2026-05-05 00:14 18.02156 -63.24446 2267 ft 180 kts 85°
2026-05-05 00:14 18.02340 -63.23147 2069 ft 180 kts 84°
2026-05-05 00:14 18.02525 -63.21861 1877 ft 175 kts 84°
2026-05-05 00:15 18.02703 -63.20641 1677 ft 161 kts 84°
2026-05-05 00:15 18.02865 -63.19552 1491 ft 144 kts 84°
2026-05-05 00:15 18.03012 -63.18534 1304 ft 138 kts 84°
2026-05-05 00:15 18.03153 -63.17539 1116 ft 139 kts 85°
2026-05-05 00:16 18.03295 -63.16539 935 ft 138 kts 84°
2026-05-05 00:16 18.03441 -63.15552 764 ft 137 kts 83°
2026-05-05 00:16 18.03580 -63.14565 630 ft 136 kts 85°
2026-05-05 00:16 18.03715 -63.13562 387 ft 136 kts 83°
2026-05-05 00:17 18.03861 -63.12562 206 ft 139 kts 83°
2026-05-05 00:17 18.04003 -63.11535 33 ft 133 kts 85°
2026-05-05 00:17 18.04114 -63.10735 27 ft 87 kts 81°
2026-05-05 00:17 18.04180 -63.10278 27 ft 45 kts 82°
2026-05-05 00:18 18.04210 -63.10067 27 ft 43 kts 81°
2026-05-05 00:18 18.04281 -63.09894 27 ft 15 kts 54°
2026-05-05 00:18 18.04244 -63.09857 27 ft 9 kts 230°
2026-05-05 00:18 18.04231 -63.09934 27 ft 15 kts 262°
2026-05-05 00:19 18.04212 -63.10061 27 ft 19 kts 261°
2026-05-05 00:19 18.04197 -63.10157 27 ft 20 kts 261°
2026-05-05 00:19 18.04175 -63.10313 27 ft 23 kts 261°
2026-05-05 00:19 18.04142 -63.10543 28 ft 26 kts 261°
2026-05-05 00:20 18.04123 -63.10671 27 ft 27 kts 260°
2026-05-05 00:20 18.04095 -63.10876 27 ft 28 kts 261°
2026-05-05 00:20 18.04067 -63.11071 28 ft 23 kts 261°
2026-05-05 00:20 18.04107 -63.11160 28 ft 14 kts 346°
2026-05-05 00:21 18.04145 -63.11202 28 ft 9 kts 261°
2026-05-05 00:21 18.04139 -63.11276 28 ft 10 kts 282°
2026-05-05 00:21 18.04197 -63.11305 28 ft 10 kts 352°
2026-05-05 00:21 18.04244 -63.11310 29 ft 5 kts
2026-05-05 00:22 18.04277 -63.11291 29 ft 6 kts 37°
2026-05-05 00:22 18.04313 -63.11290 29 ft 5 kts 352°
2026-05-05 00:22 18.04340 -63.11294 29 ft 1 kts 352°
2026-05-05 00:22 18.04344 -63.11294 29 ft 0 kts 352°